Location: Mentone
(34.5413°N, 85.5351°W)
Time: 10:18:28
(UTC-05:00)

Tiros 1 despin weight - Visible Passes

Search period start: 04 July 2015 00:00
Search period end: 14 July 2015 00:00
Orbit: 597 x 647 km, 48.2° (Epoch: 04 July)

Date Brightness Start Highest point End Pass type
(mag) Time Alt. Az. Time Alt. Az. Time Alt. Az.
06 Jul ? 04:18:50 10° S 04:22:13 20° SE 04:25:42 10° E visible
07 Jul ? 04:35:54 12° SSW 04:39:57 42° SE 04:44:25 10° ENE visible
08 Jul ? 03:16:02 13° SE 03:16:34 13° SE 03:18:58 10° E visible
08 Jul ? 04:53:10 11° SW 04:57:48 89° SSE 05:02:31 10° NE visible
09 Jul ? 03:33:14 27° SSE 03:34:15 29° SE 03:38:22 10° ENE visible
10 Jul ? 03:50:22 37° SSW 03:52:02 63° SE 03:56:43 10° ENE visible
11 Jul ? 02:30:18 17° ESE 02:30:18 17° ESE 02:32:05 10° E visible
11 Jul ? 04:07:26 27° WSW 04:09:57 66° NW 04:14:39 10° NE visible
12 Jul ? 02:47:18 37° ESE 02:47:18 37° ESE 02:50:47 10° ENE visible
12 Jul ? 04:24:26 14° W 04:28:02 37° NNW 04:32:25 10° NE visible
13 Jul ? 03:04:16 85° ENE 03:04:16 85° ENE 03:08:53 10° NE visible
13 Jul ? 04:42:26 10° WNW 04:46:18 24° NNW 04:50:07 10° NNE visible
